sat.trackr.live / text

‹ back to catalog

TIANQI-21

NORAD 57792 · 2023-135A

PAYLOAD ACTIVE UNKNOWN

§ Identity

Operator
Country
PRC
Launch date
2023-09-05
Launch site
SEAL
Launch vehicle
Mass (kg)
RCS (m²)

External: N2YO · Heavens-Above · Gunter

§ Orbital elements

Epoch: 2026-09-21T21:24:51.355584Z

Period
101.18 min
Inclination
49.9706°
Eccentricity
0.0012846
Mean motion
14.23162688 rev/d
Perigee alt
805.4 km
Apogee alt
823.9 km
Semi-major
7,192.8 km
B*
9.7515e-5
RAAN
105.4096°
Arg perigee
233.6416°
Mean anomaly
126.3311°
Rev number
15,840

§ Raw data

TIANQI-211 57792U 23135A   26264.89226106  .00000063  00000+0  97515-4 0  99972 57792  49.9706 105.4096 0012846 233.6416 126.3311 14.23162688158404

JSON: /api/v1/satellites/57792 · /tle

For live sub-satellite position, see the globe view (requires WebGL).

§ Visibility from observer

Set your observer location to see the next 7 days of passes ≥ 10°. The values pass through the URL so the page stays shareable.

No JS? Fill the form by hand. The geolocation button needs JavaScript.

§ Radio — SatNOGS DB

ModeDescriptionDownlinkUplink
LoRa LoRa 400.450 MHz
FM Mode U - Transmitter 400.264 MHz

2 transmitters · refreshed weekly from db.satnogs.org